This is the latest recevied weather packets stored in our database for station/object GW4003. If no packets are shown the sender has not sent any weather packets the latest 1 day(s).
| Time | Temp. | Humidity | Pressure | Rain* | Wind** | Luminosity | Snow |
|---|---|---|---|---|---|---|---|
| 1778032193 | 1.11° C | 90% | 1015.3 hPa | 0 mm | 0 m/s | - | - |
| 1778031889 | 1.11° C | 90% | 1015.2 hPa | 0 mm | 0.45 m/s, 323° | - | - |
| 1778031586 | 0.56° C | 90% | 1015.2 hPa | 0 mm | 0.45 m/s, 324° | - | - |
| 1778031282 | 1.11° C | 90% | 1015.3 hPa | 0 mm | 0.45 m/s, 329° | - | - |
| 1778030982 | 1.11° C | 90% | 1015.2 hPa | 0 mm | 0.89 m/s, 321° | - | - |
| 1778030682 | 1.11° C | 90% | 1015.1 hPa | 0 mm | 0 m/s | - | - |
| 1778030381 | 1.11° C | 90% | 1015 hPa | 0 mm | 0 m/s | - | - |
| 1778030081 | 1.11° C | 90% | 1015 hPa | 0 mm | 0.45 m/s, 331° | - | - |
| 1778029780 | 0.56° C | 90% | 1015 hPa | 0 mm | 0.89 m/s, 347° | - | - |
| 1778029477 | 0.56° C | 90% | 1014.9 hPa | 0 mm | 0.89 m/s, 294° | - | - |
| 1778029174 | 0.56° C | 90% | 1014.9 hPa | 0 mm | 0.45 m/s, 333° | - | - |
| 1778028870 | 0.56° C | 90% | 1014.8 hPa | 0 mm | 0.89 m/s, 321° | - | - |
| 1778028567 | 0.56° C | 89% | 1014.9 hPa | 0 mm | 1.34 m/s, 325° | - | - |
| 1778028263 | 0.56° C | 90% | 1014.9 hPa | 0 mm | 1.79 m/s, 325° | - | - |
| 1778027960 | 0.56° C | 90% | 1014.8 hPa | 0 mm | 0.45 m/s, 196° | - | - |
| 1778027656 | 0.56° C | 90% | 1014.8 hPa | 0 mm | 0.89 m/s, 47° | - | - |
| 1778027353 | 0.56° C | 89% | 1014.8 hPa | 0 mm | 0.45 m/s, 303° | - | - |
| 1778027050 | 0.56° C | 89% | 1014.9 hPa | 0 mm | 0.45 m/s, 308° | - | - |
| 1778026746 | 0.56° C | 89% | 1014.7 hPa | 0 mm | 0.45 m/s, 308° | - | - |
| 1778026443 | 0.56° C | 89% | 1014.8 hPa | 0 mm | 0.45 m/s, 312° | - | - |
| 1778026139 | 0.56° C | 89% | 1014.5 hPa | 0 mm | 0 m/s | - | - |
| 1778025836 | 0.56° C | 89% | 1014.6 hPa | 0 mm | 1.79 m/s, 319° | - | - |
| 1778025533 | 0.56° C | 89% | 1014.4 hPa | 0 mm | 0.45 m/s, 328° | - | - |
| 1778025229 | 0.56° C | 89% | 1014.5 hPa | 0.25 mm | 0 m/s | - | - |
| 1778024926 | 0.56° C | 89% | 1014.4 hPa | 0.25 mm | 0.89 m/s, 360° | - | - |
* Rain latest hour (hover to see other rain measurements)
** Current wind speed in m/s (hover to see current wind gust speed)